Miscellaneous Local Product
Issued by NWS North Platte, NE

Home | Current Version | Previous Version | Text Only | Print | Product List | Glossary On
Versions: 1 2 3 4 5 6 7 8 9 10 11 12 13 14 15 16 17 18 19 20 21 22 23 24 25 26 27 28 29 30 31 32 33 34 35 36 37 38 39 40 41 42 43 44 45 46 47 48 49 50
000
AXUS43 KLBF 170910
MISLBF


WESTERN AND NORTH CENTRAL NEBRASKA HOURLY WEATHER ROUNDUP
NATIONAL WEATHER SERVICE NORTH PLATTE NE
400 AM CDT THU APR 17 2014

***STATIONS NOT REPORTING VARIABLES SUCH AS SKY/WEATHER OR
PRESSURE ARE PROVIDED BY THE NEBRASKA DEPARTMENT OF
ROADS...RAWS...AND APRS NETWORKS...AND ARE NOT UNDER
NATIONAL WEATHER SERVICE QUALITY CONTROL***

...OBSERVATIONS IN AND NEAR THE EASTERN PANHANDLE OF NEBRASKA...

CITY           SKY/WX    TMP DP  RH WIND       PRES   REMARKS
PINE RIDGE     CLOUDY    30  26  85 SE5       30.17F WCI  25
CHADRON        MOCLDY    31  28  89 CALM      30.15F
ALLIANCE       CLOUDY    31  27  85 S8        30.15F WCI  23
SIDNEY         CLOUDY    32  30  92 E9        30.13F FOG     WCI  24
WHITECLAY        N/A     29  25  86 E6          N/A  WCI  23
CRESCENT LAKE    N/A     30  27  88 E3          N/A
LISCO            N/A     34  27  75 NE6         N/A  WCI  28
BIG SPRINGS      N/A     34  29  83 NE5         N/A  WCI  30
LEWELLEN         N/A     32  27  80 CALM        N/A
$$

...OBSERVATIONS IN SOUTHWEST NEBRASKA AND FAR NORTHEAST COLORADO...

CITY           SKY/WX    TMP DP  RH WIND       PRES   REMARKS
WRAY           CLOUDY    34  32  93 E7        30.17S WCI  28
HOLYOKE        CLOUDY    34  32  93 E9        30.18R WCI  26
IMPERIAL       CLOUDY    32  27  81 E8        30.20R WCI  25
OGALLALA       CLOUDY    33  27  80 NE7       30.19R WCI  27
NORTH PLATTE   CLOUDY    30  24  78 N7        30.22R WCI  23
MCCOOK         CLOUDY    33  27  78 NE9       30.22S WCI  25
LEXINGTON      CLOUDY    32  27  79 N9        30.23R WCI  25
PAXTON           N/A     33  29  84 N5          N/A  WCI  28
SUTHERLAND       N/A     25  24  93 N9          N/A  WCI  16
MEDICINE CREEK   N/A     32  27  82 CALM        N/A
GOTHENBURG       N/A     31  25  79 N3          N/A
CALLAWAY         N/A     29  25  83 N9          N/A  WCI  21
$$

...OBSERVATIONS IN NORTH CENTRAL NEBRASKA...

CITY           SKY/WX    TMP DP  RH WIND       PRES   REMARKS
VALENTINE      CLEAR     20  17  88 SW5       30.23R WCI  13
THEDFORD       CLOUDY    30  24  77 N3        30.23R
AINSWORTH      PTCLDY    25  21  85 W3        30.23R
O`NEILL        CLOUDY    31  22  71 N6        30.24R WCI  25
ORD            CLOUDY    30  23  75 N12       30.22S WCI  20
BROKEN BOW     CLOUDY    28  23  81 N10       30.22R WCI  19
BROWNLEE         N/A     24  18  80 CALM        N/A
SPRINGVIEW       N/A     25  20  80 CALM        N/A
DUNNING          N/A     29  25  84 NW6         N/A  WCI  23
BREWSTER         N/A     30  25  81 E7          N/A  WCI  23
ROSE             N/A     32  28  86 CALM        N/A
NEWPORT          N/A     32  27  80 NE5         N/A  WCI  27
COMSTOCK         N/A     34  28  77 N10         N/A  WCI  26
CHAMBERS         N/A     29  21  71 N6          N/A  WCI  23
EWING            N/A     30  22  73 N7          N/A  WCI  23
$$

...SOME WEATHER OBSERVATIONS FROM AROUND THE REGION...

CITY           SKY/WX    TMP DP  RH WIND       PRES   REMARKS
DENVER         MOCLDY    29  26  89 SE12      30.07F WCI  19
LARAMIE        PTCLDY    28  24  85 S14       30.01F WCI  17
CHEYENNE       MOCLDY    30  28  92 S13       30.06F WCI  20
SCOTTSBLUFF    CLOUDY    34  29  82 E12       30.14F WCI  25
RAPID CITY     CLOUDY    28  25  88 S9        30.16F WCI  19
PIERRE         CLEAR     22  18  85 CALM      30.24R
WINNER         FAIR      25  20  81 W5        30.24R WCI  19
SIOUX FALLS    CLOUDY    27  22  81 N10       30.19R WCI  17
OMAHA          CLOUDY    34  26  72 NW21      30.19R WCI  22
GRAND ISLAND   CLOUDY    32  24  72 N15       30.24R WCI  22
KANSAS CITY    CLOUDY    39  31  72 NW8       30.15R WCI  33
WICHITA        CLOUDY    43  31  62 N13       30.16R
HAYS           CLOUDY    36  25  64 NE12      30.21R WCI  27
LIBERAL        CLOUDY    46  30  53 E13       30.11F
GOODLAND       CLOUDY    33  30  88 E6        30.17S WCI  28
$$



USA.gov is the U.S. government's official web portal to all federal, state and local government web resources and services.